Wind_Speed
18 18 19 18 18 17 15 15 15 14 12 12 14 15 15 14 14 16 20 8 5 15 12 8 6 5 9 7 9 7 2 5 8 8 14 15 4 14 19 18 19 13 14 21 24
19 19 19 20 18 16 15 14 14 14 13 11 12 13 13 15 16 16 8 7 9 10 9 5 5 6 6 6 6 6 4 8 4 8 10 14 8 11 12 22 21 31 8 21 17
21 19 19 18 18 16 13 12 12 12 12 11 11 10 10 13 14 2 6 4 14 11 9 5 3 4 5 6 7 6 9 4 5 11 17 20 20 20 8 11 24 28 15 14 12
23 21 19 19 17 14 11 10 10 9 10 11 9 7 8 8 1 1 4 5 7 8 8 3 5 3 3 5 10 5 6 9 16 24 24 13 23 18 14 25 26 29 25 20 23
26 23 21 20 16 12 9 8 8 8 8 8 7 7 6 5 8 5 1 1 3 6 7 9 6 3 3 3 2 5 6 20 26 28 27 28 21 17 31 34 34 32 37 19 22
26 25 22 20 15 11 9 7 6 7 7 7 6 6 6 4 3 4 5 4 5 6 8 8 2 7 6 4 5 2 6 11 11 15 19 10 16 12 31 27 29 29 28 16 23
27 25 23 19 14 11 9 7 7 7 7 6 6 7 10 15 3 6 5 1 4 5 6 5 6 3 4 6 5 5 5 7 4 6 4 9 7 15 15 17 22 20 20 15 23
29 26 23 17 13 12 9 7 7 8 7 5 6 7 8 3 10 10 8 6 5 5 9 8 11 9 2 6 9 6 3 4 4 1 6 4 14 13 11 13 15 21 22 23 21
30 27 22 16 12 11 10 10 10 10 7 5 6 6 9 4 9 9 12 8 6 7 9 11 13 5 2 3 5 5 5 5 7 4 4 6 9 7 15 12 21 25 28 28 29
33 30 21 17 13 9 12 14 11 8 6 6 7 7 6 1 11 8 8 9 10 8 5 6 3 2 3 5 3 5 5 6 5 4 1 10 17 9 18 17 25 21 31 32 29
33 32 25 17 14 10 9 11 9 3 8 14 14 16 24 10 6 6 12 11 9 5 2 2 2 5 10 8 8 5 5 10 13 15 4 12 13 9 15 18 22 24 25 31 35
33 33 27 20 15 11 11 9 11 12 13 21 22 28 24 20 7 11 11 9 5 5 2 4 7 9 6 7 8 8 12 15 11 14 6 10 14 9 7 10 17 23 19 25 23
34 34 30 27 16 13 9 6 13 11 4 11 7 12 13 13 12 14 16 15 5 4 5 7 10 2 5 7 7 10 7 12 12 6 5 2 9 6 4 7 14 13 9 11 16
34 35 33 32 11 7 7 8 10 9 3 5 4 4 8 9 5 15 22 14 4 10 6 6 9 9 6 6 5 6 9 9 9 4 7 3 11 5 5 8 6 17 24 24 19
34 35 33 31 12 12 5 6 8 1 3 3 3 1 6 10 1 4 19 22 9 8 6 10 3 3 6 5 4 7 7 7 9 5 1 2 1 8 2 6 9 9 24 24 30
36 29 31 25 13 4 4 7 2 4 5 1 5 5 4 6 2 0 8 19 13 5 4 7 2 1 3 5 3 8 6 5 5 2 3 7 7 14 9 7 5 5 18 28 36
36 25 23 14 1 4 3 3 4 3 5 5 3 1 5 2 0 2 4 6 10 4 2 3 3 3 1 2 4 9 6 5 4 3 13 8 4 17 4 6 8 9 19 28 35
36 25 15 3 5 3 1 3 3 3 4 7 3 5 3 1 1 2 4 5 5 3 3 3 5 2 2 3 5 3 4 3 7 5 7 4 8 18 4 8 14 4 24 22 29
35 20 6 5 6 1 2 2 4 2 8 6 9 2 1 1 2 6 2 1 3 3 3 3 4 4 6 4 5 4 5 3 4 5 4 5 8 13 13 7 4 11 22 28 23
37 20 9 7 4 2 4 3 3 3 9 4 4 2 2 2 2 3 2 1 5 4 2 4 3 4 3 5 4 1 3 0 2 4 5 4 5 7 11 8 8 1 15 19 25
22 9 7 8 3 4 1 4 5 13 9 3 4 2 1 1 1 3 4 2 0 3 4 3 3 4 3 2 3 2 2 1 2 3 3 3 5 3 5 6 13 7 8 8 10
15 4 5 7 3 2 1 6 14 7 11 5 3 1 1 1 2 3 2 1 2 6 4 1 4 3 8 6 5 4 5 5 3 3 3 4 5 4 7 7 15 23 19 17 11
22 7 10 3 1 3 5 7 10 14 10 5 4 3 2 2 2 2 1 3 1 3 6 6 1 2 8 6 4 0 3 4 1 2 5 2 5 0 3 10 10 14 25 22 22
9 4 6 9 7 3 4 4 4 17 6 8 4 2 3 1 2 2 2 0 5 4 5 8 3 6 6 7 4 5 6 6 6 3 4 9 10 12 8 6 9 16 23 22 18
4 2 4 4 3 5 2 5 11 5 7 10 4 2 1 2 3 4 2 2 3 2 3 4 5 5 7 9 9 12 13 12 9 15 10 17 10 2 5 6 7 15 21 23 25
5 5 8 10 12 5 3 2 4 5 4 8 6 10 6 5 7 7 5 4 5 1 3 1 3 3 4 11 9 9 13 12 11 13 13 13 11 1 7 13 13 18 22 24 28
3 4 4 6 5 4 3 1 3 8 6 13 14 13 10 10 13 17 14 8 6 6 5 4 3 2 4 4 7 5 3 3 4 7 5 3 3 4 6 9 16 21 25 29 34
Wind_Direction
339 335 331 328 325 320 314 310 306 303 301 300 299 298 299 298 294 287 280 297 244 199 204 196 206 218 210 216 197 187 146 219 214 209 246 292 292 285 299 295 310 307 268 194 172
342 336 331 328 327 321 312 304 302 300 298 295 298 302 303 299 303 299 323 233 183 180 183 198 243 227 197 208 199 176 193 226 182 225 269 280 269 291 311 303 302 308 317 204 168
349 344 339 334 329 323 316 303 299 296 295 296 298 304 297 307 317 18 67 91 175 206 207 204 202 167 205 211 201 201 235 209 245 249 260 274 278 287 258 278 279 285 281 203 213
357 352 346 340 335 329 321 310 302 297 297 299 301 298 291 306 326 73 70 86 158 179 194 186 188 193 216 210 223 239 243 249 263 259 259 258 272 265 263 265 281 284 296 216 195
1 357 352 347 345 342 334 327 315 307 304 303 305 297 296 277 258 222 189 151 157 174 175 162 181 188 225 236 241 205 239 253 258 260 257 263 263 263 267 271 278 278 279 227 204
4 358 354 351 352 355 349 343 336 324 316 312 304 292 286 276 285 198 203 247 206 182 169 199 215 299 273 255 162 262 261 274 283 274 264 245 260 247 260 268 274 267 266 254 217
4 359 354 354 356 1 3 0 353 340 326 315 300 291 278 256 259 176 185 307 229 241 218 253 302 276 320 321 310 284 304 322 245 266 255 233 271 243 273 253 238 242 250 225 224
3 360 355 354 354 354 356 353 345 343 337 312 291 294 264 241 206 193 199 203 206 232 256 283 298 286 237 302 342 356 49 324 281 326 266 181 262 278 270 228 243 244 249 249 248
1 360 354 350 348 349 347 335 310 308 313 312 286 296 271 214 246 234 210 220 200 256 276 284 294 257 335 57 3 357 257 262 302 217 236 197 276 270 288 265 240 252 251 245 251
1 356 351 344 336 334 337 336 323 292 259 303 265 299 246 263 340 259 216 227 248 271 280 228 253 70 36 72 247 261 295 289 283 276 213 281 275 264 286 291 283 265 246 243 238
360 356 354 339 328 319 331 340 342 298 268 256 259 261 280 296 333 244 216 204 223 235 185 19 88 225 237 208 225 234 247 259 276 277 275 264 266 264 273 293 291 289 240 234 243
356 354 352 343 311 301 311 332 357 301 298 282 263 254 260 263 292 240 207 197 186 211 124 8 254 242 225 241 230 239 258 273 276 263 211 259 268 264 249 263 279 288 234 236 226
351 348 342 346 310 286 280 348 353 341 278 296 253 239 233 217 222 234 206 198 176 203 193 198 246 262 244 281 268 262 251 266 251 265 263 272 284 286 259 264 283 291 290 255 224
339 344 338 340 319 261 251 322 333 339 8 272 232 233 189 205 271 251 217 200 190 210 205 234 263 235 265 254 245 275 277 266 265 207 256 153 275 265 241 257 293 296 300 291 273
334 333 332 334 305 253 247 295 317 323 332 164 173 246 188 170 318 224 206 202 207 204 127 236 229 264 289 265 339 252 292 279 273 225 116 237 221 274 230 268 264 271 283 285 285
333 327 325 329 322 228 270 313 308 46 255 341 139 171 139 227 266 323 185 213 236 212 246 249 329 76 237 282 238 295 330 344 19 121 239 229 178 275 244 223 242 249 277 291 290
335 326 323 321 340 151 258 308 52 173 313 4 12 87 203 270 337 24 266 183 203 164 241 346 251 276 222 308 17 28 47 320 293 257 252 152 183 246 279 232 236 279 313 311 291
334 327 327 292 207 209 250 70 192 252 24 338 337 327 111 0 236 306 7 350 37 108 124 169 308 1 45 186 217 189 175 225 268 240 269 271 229 256 142 243 258 214 17 351 313
336 333 357 174 169 54 50 112 217 260 348 337 306 284 341 25 356 22 320 150 17 35 163 143 270 303 251 253 191 186 191 83 252 224 255 235 274 299 284 279 252 89 47 24 17
338 340 43 176 186 15 73 232 263 286 323 296 250 215 217 21 56 38 295 178 181 208 151 201 281 249 300 344 32 152 139 34 219 249 218 279 276 243 298 322 282 97 73 39 24
344 344 354 180 177 41 128 250 274 308 314 292 302 264 90 113 253 214 251 320 141 81 72 109 129 285 17 216 213 140 101 277 249 242 273 303 259 241 35 356 340 349 54 46 7
355 343 5 168 34 60 345 328 313 308 346 307 327 37 166 165 235 250 234 265 176 153 151 127 147 241 247 273 240 175 183 181 170 285 302 310 273 102 47 23 359 332 313 310 309
338 300 17 347 118 1 329 337 327 326 322 327 10 1 17 180 329 223 17 30 88 149 171 182 197 341 340 353 353 259 219 223 68 77 232 257 265 285 354 345 344 338 323 298 287
343 343 336 42 61 75 13 301 309 323 316 351 286 33 1 312 256 264 266 115 348 234 188 133 154 171 204 225 190 274 249 216 188 202 251 234 274 303 333 348 337 9 358 353 321
355 328 4 317 348 325 76 282 277 323 325 325 333 38 243 274 265 237 219 301 321 150 90 112 212 202 239 248 251 263 272 272 231 241 233 269 263 283 343 328 328 338 343 340 336
353 353 345 300 296 274 155 246 270 311 324 312 324 321 275 224 219 250 201 195 212 139 119 88 257 222 270 259 268 274 286 282 300 265 251 270 290 18 327 328 329 326 326 319 316
321 304 301 285 301 309 242 357 318 349 270 268 306 296 276 250 247 241 231 221 216 183 191 172 185 103 264 314 307 290 0 49 314 285 279 277 271 336 309 318 315 312 306 299 298
Height
1512 1508 1505 1502 1500 1497 1494 1492 1491 1489 1487 1486 1485 1483 1483 1482 1481 1479 1475 1477 1477 1478 1481 1483 1485 1485 1488 1490 1492 1492 1502 1508 1497 1499 1484 1483 1485 1486 1485 1481 1484 1484 1480 1473 1471
1510 1506 1503 1499 1497 1494 1491 1490 1488 1487 1485 1484 1483 1482 1481 1478 1477 1474 1473 1472 1475 1476 1479 1480 1482 1483 1488 1487 1490 1489 1499 1494 1486 1488 1486 1483 1484 1485 1486 1479 1477 1477 1478 1473 1473
1508 1504 1500 1497 1494 1491 1489 1487 1486 1485 1483 1482 1481 1481 1480 1479 1476 1472 1472 1471 1473 1476 1479 1481 1482 1485 1486 1486 1485 1485 1486 1484 1482 1484 1484 1480 1481 1483 1480 1479 1478 1477 1477 1476 1474
1507 1503 1499 1495 1491 1489 1487 1485 1484 1483 1482 1481 1480 1479 1478 1479 1480 1473 1473 1472 1473 1475 1477 1479 1482 1483 1485 1485 1481 1486 1481 1480 1480 1481 1482 1478 1479 1477 1477 1473 1475 1474 1474 1473 1470
1507 1502 1498 1494 1490 1488 1486 1484 1483 1482 1481 1480 1480 1479 1479 1479 1474 1474 1474 1474 1474 1475 1477 1479 1482 1483 1484 1481 1480 1481 1479 1477 1474 1474 1475 1476 1473 1475 1467 1470 1470 1468 1469 1469 1469
1506 1502 1498 1494 1490 1487 1486 1484 1482 1481 1480 1479 1479 1478 1479 1479 1471 1472 1474 1474 1475 1476 1477 1479 1481 1481 1481 1479 1479 1476 1475 1474 1472 1470 1470 1472 1469 1471 1457 1466 1466 1463 1461 1460 1463
1506 1502 1498 1494 1491 1489 1486 1484 1482 1481 1480 1479 1478 1477 1476 1471 1470 1471 1472 1473 1474 1476 1477 1478 1478 1479 1477 1476 1475 1473 1473 1470 1468 1466 1466 1465 1468 1460 1459 1460 1459 1458 1459 1459 1460
1507 1502 1497 1494 1492 1490 1487 1484 1482 1481 1479 1478 1477 1476 1471 1468 1469 1470 1471 1472 1473 1474 1475 1476 1477 1477 1476 1476 1474 1475 1475 1480 1469 1467 1466 1468 1466 1455 1457 1458 1456 1456 1454 1453 1454
1507 1501 1497 1494 1492 1490 1487 1484 1482 1480 1479 1478 1477 1476 1468 1468 1467 1468 1470 1471 1472 1474 1474 1474 1476 1476 1476 1481 1488 1486 1490 1483 1475 1465 1464 1465 1463 1454 1452 1454 1453 1453 1451 1449 1449
1507 1502 1497 1494 1491 1489 1487 1484 1480 1478 1478 1477 1476 1478 1467 1466 1466 1466 1468 1470 1471 1473 1473 1473 1475 1478 1483 1489 1503 1491 1488 1480 1478 1467 1464 1465 1457 1453 1449 1447 1443 1444 1444 1444 1443
1506 1502 1497 1493 1490 1488 1486 1483 1483 1480 1476 1473 1470 1467 1464 1465 1464 1465 1466 1468 1470 1472 1475 1473 1480 1485 1480 1480 1479 1481 1482 1481 1470 1461 1464 1460 1452 1450 1445 1441 1435 1432 1434 1435 1438
1505 1500 1496 1492 1488 1487 1485 1483 1483 1482 1470 1463 1461 1461 1461 1464 1466 1463 1465 1468 1468 1472 1472 1478 1481 1471 1472 1473 1475 1476 1478 1474 1464 1457 1460 1455 1449 1443 1440 1437 1432 1429 1429 1429 1431
1502 1497 1492 1488 1484 1483 1483 1482 1480 1477 1474 1458 1455 1454 1456 1460 1459 1458 1462 1463 1465 1470 1472 1478 1468 1465 1469 1470 1473 1470 1473 1467 1465 1454 1450 1449 1450 1441 1434 1432 1429 1427 1428 1429 1428
1498 1493 1487 1482 1480 1478 1479 1479 1478 1476 1479 1461 1454 1452 1454 1456 1456 1452 1456 1461 1463 1466 1469 1472 1461 1464 1466 1468 1465 1472 1457 1457 1456 1461 1467 1448 1460 1442 1435 1433 1429 1425 1423 1423 1425
1495 1489 1482 1477 1476 1475 1477 1477 1476 1476 1487 1451 1451 1450 1450 1454 1452 1450 1451 1457 1459 1460 1465 1465 1458 1461 1465 1463 1461 1463 1454 1455 1453 1456 1456 1455 1466 1442 1433 1434 1428 1422 1419 1417 1415
1490 1485 1479 1473 1470 1471 1473 1474 1475 1486 1484 1450 1447 1449 1452 1450 1450 1450 1451 1453 1454 1459 1459 1459 1458 1459 1459 1457 1456 1455 1455 1454 1459 1463 1467 1449 1459 1437 1431 1426 1421 1417 1416 1414 1411
1485 1480 1475 1471 1470 1470 1471 1473 1485 1490 1454 1456 1452 1449 1450 1452 1450 1449 1450 1453 1457 1466 1466 1460 1457 1456 1455 1458 1456 1459 1470 1483 1474 1469 1453 1445 1453 1424 1414 1418 1416 1415 1412 1407 1402
1480 1475 1470 1470 1469 1469 1470 1474 1485 1466 1460 1453 1451 1450 1453 1453 1453 1451 1452 1456 1451 1454 1466 1468 1470 1458 1455 1458 1461 1464 1466 1479 1468 1472 1452 1443 1443 1408 1409 1410 1408 1409 1406 1399 1391
1476 1470 1467 1468 1469 1469 1470 1480 1476 1467 1460 1459 1453 1454 1455 1453 1453 1454 1454 1455 1453 1453 1463 1472 1472 1457 1455 1454 1458 1460 1467 1464 1465 1465 1459 1449 1425 1406 1404 1405 1401 1401 1400 1400 1395
1474 1468 1468 1468 1469 1469 1473 1476 1470 1463 1461 1457 1459 1452 1458 1457 1458 1458 1457 1452 1454 1452 1452 1459 1470 1457 1455 1453 1455 1457 1462 1469 1468 1459 1447 1445 1436 1428 1411 1409 1402 1401 1394 1399 1399
1475 1470 1470 1469 1471 1470 1477 1475 1467 1463 1461 1459 1455 1454 1456 1458 1458 1458 1455 1452 1450 1454 1455 1459 1465 1462 1457 1457 1457 1462 1465 1468 1467 1463 1454 1448 1438 1417 1420 1417 1412 1402 1397 1398 1399
1478 1476 1472 1471 1474 1474 1475 1473 1468 1461 1460 1456 1453 1452 1454 1456 1457 1457 1456 1453 1451 1452 1457 1461 1469 1473 1463 1453 1452 1455 1460 1462 1471 1456 1453 1447 1439 1415 1418 1412 1411 1409 1402 1399 1396
1483 1478 1473 1472 1478 1480 1475 1472 1470 1467 1461 1457 1456 1454 1455 1456 1459 1455 1455 1453 1452 1454 1458 1460 1471 1481 1469 1461 1455 1454 1457 1457 1460 1462 1457 1455 1444 1416 1416 1411 1411 1415 1407 1402 1398
1489 1487 1476 1475 1478 1480 1481 1475 1474 1469 1462 1459 1457 1455 1456 1457 1456 1456 1455 1453 1453 1452 1452 1454 1467 1465 1474 1460 1462 1462 1453 1453 1457 1460 1451 1440 1432 1420 1419 1415 1415 1414 1413 1406 1403
1493 1492 1491 1487 1480 1482 1481 1481 1473 1472 1466 1461 1458 1459 1459 1459 1458 1457 1454 1453 1452 1451 1453 1456 1462 1462 1457 1454 1451 1449 1447 1444 1448 1442 1445 1425 1428 1422 1422 1420 1417 1417 1414 1411 1406
1495 1495 1492 1489 1484 1481 1479 1477 1475 1473 1472 1466 1464 1460 1458 1459 1456 1455 1453 1454 1454 1454 1454 1458 1466 1456 1455 1447 1446 1444 1440 1436 1431 1425 1426 1426 1427 1421 1420 1419 1416 1415 1412 1408 1404
1495 1495 1494 1487 1484 1482 1478 1475 1474 1475 1470 1466 1463 1460 1456 1451 1447 1446 1447 1448 1448 1451 1455 1457 1461 1464 1457 1448 1446 1444 1438 1436 1438 1433 1432 1429 1425 1422 1420 1418 1415 1412 1411 1407 1401